Weather History for Wahoo, NE

Change the Weather History Date:

Monday, October 15, 2012

  Actual Average Record
Temperature  
Mean Temperature 56 °F -  
Max Temperature 76 °F 67 °F 84 °F (1963)
Min Temperature 37 °F 40 °F 26 °F (1974)
Degree Days  
Heating Degree Days 9    
Growing Degree Days 6 (Base 50)    
Moisture  
Dew Point 41 °F    
Average Humidity 63    
Maximum Humidity 91    
Minimum Humidity 26    
Precipitation  
Precipitation 0.00 in - - ()
Sea Level Pressure  
Sea Level Pressure 29.89 in    
Wind  
Wind Speed 4 mph (SSE)    
Max Wind Speed 15 mph    
Max Gust Speed 21 mph    
Visibility 10 miles    
Events      
Averages and records for this station are not official NWS values.
T = Trace of Precipitation, MM = Missing Value Source: NWS Daily Summary

Daily Weather History Graph

Daily Weather History Graph

Search for Another Location

Airport:

Trip Planner

Search our weather history database for the weather conditions in past years. The results will help you decide how hot, cold, wet, or windy it might be!

Date:

Astronomy

Oct. 15, 2012 Rise Set
Actual Time 7:38 AM CDT 6:44 PM CDT
Civil Twilight 7:10 AM CDT 7:12 PM CDT
Nautical Twilight 6:38 AM CDT 7:44 PM CDT
Astronomical Twilight 6:06 AM CDT 8:16 PM CDT
Moon 7:51 AM CDT (10/15) 6:44 PM CDT (10/15)
Length of Visible Light 12h 01m
Length of Day
11h 06m
Waxing Crescent, 0% of the Moon is Illuminated
Oct 15
Waxing Crescent
Oct 21
First Quarter
Oct 29
Full
Nov 6
Last Quarter
Nov 13
New

Hourly Weather History & Observations

Time (CDT) Temp. Windchill Dew Point Humidity Pressure Visibility Wind Dir Wind Speed Gust Speed Precip Events Conditions
12:15 AM 43.0 °F - 37.6 °F 81% 29.99 in 10.0 mi Calm Calm - N/A   Clear
12:35 AM 42.8 °F - 37.6 °F 82% 29.99 in 10.0 mi Calm Calm - N/A   Clear
12:55 AM 42.8 °F - 37.0 °F 80% 29.98 in 10.0 mi Calm Calm - N/A   Mostly Cloudy
1:15 AM 43.0 °F - 37.9 °F 82% 29.98 in 10.0 mi Calm Calm - N/A   Overcast
1:35 AM 43.5 °F - 38.3 °F 82% 29.98 in 10.0 mi Calm Calm - N/A   Overcast
1:55 AM 43.2 °F 41.5 °F 38.3 °F 83% 29.98 in 10.0 mi NE 3.5 mph - N/A   Overcast
2:15 AM 40.8 °F - 37.4 °F 88% 29.98 in 10.0 mi Calm Calm - N/A   Scattered Clouds
2:35 AM 42.8 °F - 38.5 °F 85% 29.98 in 10.0 mi Calm Calm - N/A   Scattered Clouds
2:55 AM 44.4 °F - 38.8 °F 81% 29.97 in 10.0 mi Calm Calm - N/A   Clear
3:15 AM 42.3 °F - 37.0 °F 82% 29.97 in 10.0 mi Calm Calm - N/A   Clear
3:35 AM 40.6 °F 38.6 °F 36.1 °F 84% 29.97 in 10.0 mi North 3.5 mph - N/A   Clear
3:55 AM 38.3 °F 35.9 °F 35.2 °F 89% 29.97 in 10.0 mi NNW 3.5 mph - N/A   Clear
4:15 AM 39.7 °F - 36.0 °F 86% 29.97 in 10.0 mi Calm Calm - N/A   Clear
4:35 AM 40.6 °F 37.5 °F 37.0 °F 87% 29.97 in 10.0 mi West 4.6 mph - N/A   Clear
4:55 AM 41.0 °F - 37.9 °F 89% 29.97 in 10.0 mi Calm Calm - N/A   Clear
5:15 AM 38.7 °F 35.2 °F 35.4 °F 88% 29.97 in 10.0 mi South 4.6 mph - N/A   Clear
5:35 AM 39.2 °F 35.0 °F 36.7 °F 91% 29.96 in 10.0 mi South 5.8 mph - N/A   Clear
5:55 AM 38.3 °F 35.9 °F 35.2 °F 89% 29.96 in 10.0 mi SSE 3.5 mph - N/A   Clear
6:15 AM 39.6 °F 36.3 °F 36.1 °F 88% 29.96 in 10.0 mi South 4.6 mph - N/A   Clear
6:35 AM 37.9 °F - 34.9 °F 89% 29.96 in 10.0 mi Calm Calm - N/A   Clear
6:55 AM 37.8 °F - 34.9 °F 89% 29.96 in 10.0 mi Calm Calm - N/A   Clear
7:15 AM 38.8 °F - 35.6 °F 88% 29.97 in 10.0 mi Calm Calm - N/A   Clear
7:35 AM 39.6 °F - 36.5 °F 89% 29.97 in 10.0 mi Calm Calm - N/A   Clear
7:55 AM 39.2 °F - 36.1 °F 89% 29.97 in 10.0 mi Calm Calm - N/A   Clear
8:15 AM 40.3 °F - 37.0 °F 88% 29.97 in 10.0 mi Calm Calm - N/A   Clear
8:35 AM 42.4 °F - 38.7 °F 86% 29.97 in 10.0 mi Calm Calm - N/A   Clear
8:55 AM 44.6 °F - 40.5 °F 85% 29.97 in 10.0 mi Calm Calm - N/A   Clear
9:15 AM 46.6 °F - 41.5 °F 83% 29.98 in 10.0 mi Calm Calm - N/A   Clear
9:35 AM 49.6 °F - 42.1 °F 75% 29.98 in 10.0 mi SSE 4.6 mph - N/A   Clear
9:55 AM 51.8 °F - 42.3 °F 70% 29.98 in 10.0 mi SSE 5.8 mph - N/A   Clear
10:15 AM 53.6 °F - 42.8 °F 67% 29.97 in 10.0 mi SE 5.8 mph - N/A   Clear
10:55 AM 57.7 °F - 43.3 °F 59% 29.97 in 10.0 mi SSE 6.9 mph - N/A   Clear
11:15 AM 59.9 °F - 43.5 °F 55% 29.96 in 10.0 mi South 6.9 mph - N/A   Clear
11:35 AM 62.4 °F - 43.5 °F 50% 29.95 in 10.0 mi SSE 8.1 mph - N/A   Clear
11:55 AM 64.2 °F - 42.8 °F 46% 29.95 in 10.0 mi SSE 10.4 mph - N/A   Clear
12:15 PM 66.7 °F - 40.8 °F 39% 29.94 in 10.0 mi SSE 11.5 mph - N/A   Clear
12:35 PM 68.4 °F - 38.3 °F 33% 29.93 in 10.0 mi South 6.9 mph - N/A   Clear
12:55 PM 70.0 °F - 37.8 °F 31% 29.92 in 10.0 mi SSE 8.1 mph - N/A   Clear
1:15 PM 71.8 °F - 37.9 °F 29% 29.92 in 10.0 mi South 5.8 mph - N/A   Clear
1:35 PM 71.6 °F - 38.1 °F 30% 29.91 in 10.0 mi SSE 6.9 mph - N/A   Clear
1:55 PM 72.3 °F - 37.8 °F 28% 29.89 in 10.0 mi South 10.4 mph - N/A   Clear
2:15 PM 73.4 °F - 38.5 °F 28% 29.88 in 10.0 mi South 9.2 mph - N/A   Clear
2:35 PM 74.5 °F - 38.8 °F 28% 29.86 in 10.0 mi South 8.1 mph - N/A   Clear
2:55 PM 74.3 °F - 39.2 °F 28% 29.85 in 10.0 mi South 15.0 mph 18.4 mph N/A   Clear
3:15 PM 75.9 °F - 38.8 °F 26% 29.85 in 10.0 mi South 11.5 mph - N/A   Clear
3:35 PM 75.9 °F - 39.6 °F 27% 29.85 in 10.0 mi South 13.8 mph 20.7 mph N/A   Clear
3:55 PM 74.8 °F - 39.7 °F 28% 29.84 in 10.0 mi South 15.0 mph - N/A   Clear
4:15 PM 75.6 °F - 39.9 °F 28% 29.83 in 10.0 mi South 11.5 mph - N/A   Clear
4:35 PM 75.6 °F - 40.1 °F 28% 29.83 in 10.0 mi South 11.5 mph - N/A   Clear
4:55 PM 75.2 °F - 40.5 °F 29% 29.82 in 10.0 mi SSE 11.5 mph 20.7 mph N/A   Clear
5:15 PM 74.8 °F - 41.4 °F 30% 29.81 in 10.0 mi SSE 11.5 mph - N/A   Clear
5:35 PM 74.8 °F - 42.1 °F 31% 29.80 in 10.0 mi SSE 12.7 mph 17.3 mph N/A   Clear
5:55 PM 73.9 °F - 43.0 °F 33% 29.80 in 10.0 mi SSE 11.5 mph - N/A   Clear
6:15 PM 71.8 °F - 44.2 °F 37% 29.79 in 10.0 mi SE 10.4 mph - N/A   Clear
6:35 PM 67.8 °F - 45.7 °F 45% 29.80 in 10.0 mi SE 9.2 mph - N/A   Clear
6:55 PM 64.4 °F - 46.0 °F 51% 29.80 in 10.0 mi SE 9.2 mph - N/A   Clear
7:15 PM 61.5 °F - 45.9 °F 56% 29.79 in 10.0 mi SE 8.1 mph - N/A   Clear
7:35 PM 61.0 °F - 46.8 °F 59% 29.79 in 10.0 mi SE 9.2 mph - N/A   Clear
7:55 PM 61.0 °F - 47.3 °F 61% 29.79 in 10.0 mi SE 9.2 mph - N/A   Clear
8:15 PM 60.8 °F - 47.3 °F 61% 29.79 in 10.0 mi SE 8.1 mph - N/A   Clear
8:35 PM 61.2 °F - 47.3 °F 60% 29.79 in 10.0 mi SSE 5.8 mph - N/A   Clear
8:55 PM 60.3 °F - 47.5 °F 63% 29.79 in 10.0 mi SSE 6.9 mph - N/A   Clear
9:15 PM 59.0 °F - 47.3 °F 65% 29.78 in 10.0 mi SE 9.2 mph - N/A   Clear
9:35 PM 61.0 °F - 46.8 °F 59% 29.77 in 10.0 mi SSE 9.2 mph - N/A   Clear
9:55 PM 58.3 °F - 46.9 °F 66% 29.77 in 10.0 mi SE 6.9 mph - N/A   Clear
10:15 PM 56.8 °F - 46.9 °F 69% 29.77 in 10.0 mi SSE 9.2 mph - N/A   Clear
10:35 PM 58.5 °F - 47.1 °F 66% 29.77 in 10.0 mi SSE 8.1 mph - N/A   Clear
10:55 PM 57.2 °F - 47.3 °F 69% 29.76 in 10.0 mi SE 8.1 mph - N/A   Clear
11:15 PM 55.8 °F - 46.8 °F 72% 29.76 in 10.0 mi SSE 5.8 mph - N/A   Clear
11:35 PM 55.0 °F - 46.4 °F 73% 29.75 in 10.0 mi SSE 6.9 mph - N/A   Clear
11:55 PM 54.1 °F - 46.0 °F 74% 29.74 in 10.0 mi SSE 5.8 mph - N/A   Clear